Time,TemperatureF,DewpointF,PressureIn,WindDirection,WindDirectionDegrees,WindSpeedMPH,WindSpeedGustMPH,Humidity,HourlyPrecipIn,Conditions,Clouds,dailyrainin,SoftwareType,DateUTC
2013-02-26 00:00:00,41.9,32.0,30.08,WNW,292,0.0,0.0,67,0.00,,,0.00,Rainwise IP-100,2013-02-26 08:00:00,
2013-02-26 00:05:00,41.6,32.0,30.08,WNW,292,0.0,1.2,68,0.00,,,0.00,Rainwise IP-100,2013-02-26 08:05:00,
2013-02-26 00:10:00,41.7,32.0,30.08,WNW,292,0.0,0.0,66,0.00,,,0.00,Rainwise IP-100,2013-02-26 08:10:00,
2013-02-26 00:15:00,42.0,31.0,30.08,WNW,292,1.6,1.6,64,0.00,,,0.00,Rainwise IP-100,2013-02-26 08:15:00,
2013-02-26 00:20:00,42.6,31.0,30.07,WNW,292,0.0,1.9,62,0.00,,,0.00,Rainwise IP-100,2013-02-26 08:20:00,
2013-02-26 00:25:00,43.1,31.0,30.07,WNW,292,1.2,1.4,61,0.00,,,0.00,Rainwise IP-100,2013-02-26 08:25:00,
2013-02-26 00:30:00,43.3,31.0,30.07,WNW,292,0.0,1.9,60,0.00,,,0.00,Rainwise IP-100,2013-02-26 08:30:00,
2013-02-26 00:35:00,43.3,31.0,30.07,WNW,292,0.0,0.0,59,0.00,,,0.00,Rainwise IP-100,2013-02-26 08:35:00,
2013-02-26 00:40:00,42.7,31.0,30.07,WNW,292,0.0,0.0,61,0.00,,,0.00,Rainwise IP-100,2013-02-26 08:40:00,
2013-02-26 00:45:00,42.7,31.0,30.07,WNW,292,3.0,3.0,61,0.00,,,0.00,Rainwise IP-100,2013-02-26 08:45:00,
2013-02-26 00:50:00,43.6,31.0,30.07,WNW,292,0.0,3.0,58,0.00,,,0.00,Rainwise IP-100,2013-02-26 08:50:00,
2013-02-26 00:55:00,43.8,31.0,30.07,WNW,292,0.0,1.2,57,0.00,,,0.00,Rainwise IP-100,2013-02-26 08:55:00,
2013-02-26 01:00:00,43.6,31.0,30.06,WNW,292,0.0,1.6,58,0.00,,,0.00,Rainwise IP-100,2013-02-26 09:00:00,
2013-02-26 01:05:00,43.6,31.0,30.06,WNW,292,0.0,1.4,57,0.00,,,0.00,Rainwise IP-100,2013-02-26 09:05:00,
2013-02-26 01:10:00,43.0,31.0,30.06,WNW,292,0.0,0.0,59,0.00,,,0.00,Rainwise IP-100,2013-02-26 09:10:00,
2013-02-26 01:15:00,42.3,29.0,30.06,WNW,292,0.0,1.4,61,0.00,,,0.00,Rainwise IP-100,2013-02-26 09:15:00,
2013-02-26 01:20:00,42.2,29.0,30.06,WNW,292,2.1,3.3,61,0.00,,,0.00,Rainwise IP-100,2013-02-26 09:20:00,
2013-02-26 01:25:00,43.1,29.0,30.05,WNW,292,1.6,2.8,58,0.00,,,0.00,Rainwise IP-100,2013-02-26 09:25:00,
2013-02-26 01:30:00,44.0,29.0,30.05,WNW,292,0.0,1.9,56,0.00,,,0.00,Rainwise IP-100,2013-02-26 09:30:00,
2013-02-26 01:35:00,43.7,31.0,30.05,WNW,292,1.6,0.0,58,0.00,,,0.00,Rainwise IP-100,2013-02-26 09:35:00,
2013-02-26 01:40:00,43.1,31.0,30.05,WNW,292,0.0,2.3,59,0.00,,,0.00,Rainwise IP-100,2013-02-26 09:40:00,
2013-02-26 01:45:00,43.3,29.0,30.04,WNW,292,2.3,2.3,57,0.00,,,0.00,Rainwise IP-100,2013-02-26 09:45:00,
2013-02-26 01:50:00,43.6,29.0,30.04,WNW,292,1.2,2.3,56,0.00,,,0.00,Rainwise IP-100,2013-02-26 09:50:00,
2013-02-26 01:55:00,43.7,29.0,30.04,WNW,292,0.0,1.6,56,0.00,,,0.00,Rainwise IP-100,2013-02-26 09:55:00,
2013-02-26 01:56:00,43.6,29.0,30.04,WNW,292,0.0,1.6,56,0.00,,,0.00,Rainwise IP-100,2013-02-26 09:56:00,
2013-02-26 01:57:00,43.6,29.0,30.04,WNW,292,0.0,1.6,56,0.00,,,0.00,Rainwise IP-100,2013-02-26 09:57:00,
2013-02-26 01:58:00,43.5,29.0,30.04,WNW,292,0.0,1.6,56,0.00,,,0.00,Rainwise IP-100,2013-02-26 09:58:00,
2013-02-26 02:03:00,43.0,29.0,30.03,WNW,292,0.0,0.0,58,0.00,,,0.00,Rainwise IP-100,2013-02-26 10:03:00,
2013-02-26 02:08:00,42.2,29.0,30.03,WNW,292,0.0,0.0,61,0.00,,,0.00,Rainwise IP-100,2013-02-26 10:08:00,
2013-02-26 02:13:00,41.4,29.0,30.03,WNW,292,0.0,0.0,63,0.00,,,0.00,Rainwise IP-100,2013-02-26 10:13:00,
2013-02-26 02:18:00,40.5,31.0,30.03,WNW,292,0.0,0.0,66,0.00,,,0.00,Rainwise IP-100,2013-02-26 10:18:00,
2013-02-26 02:23:00,39.6,31.0,30.03,WNW,292,1.4,1.4,69,0.00,,,0.00,Rainwise IP-100,2013-02-26 10:23:00,
2013-02-26 02:28:00,39.5,32.0,30.03,WNW,292,1.2,2.1,70,0.00,,,0.00,Rainwise IP-100,2013-02-26 10:28:00,
2013-02-26 02:33:00,40.0,32.0,30.03,WNW,292,0.0,1.6,70,0.00,,,0.00,Rainwise IP-100,2013-02-26 10:33:00,
2013-02-26 02:38:00,41.0,31.0,30.03,WNW,292,2.1,3.0,67,0.00,,,0.00,Rainwise IP-100,2013-02-26 10:38:00,
2013-02-26 02:43:00,42.3,31.0,30.03,WNW,292,2.3,2.6,64,0.00,,,0.00,Rainwise IP-100,2013-02-26 10:43:00,
2013-02-26 02:48:00,43.3,32.0,30.03,WNW,292,0.0,2.6,63,0.00,,,0.00,Rainwise IP-100,2013-02-26 10:48:00,
2013-02-26 02:53:00,42.8,32.0,30.03,WNW,292,0.0,0.0,64,0.00,,,0.00,Rainwise IP-100,2013-02-26 10:53:00,
2013-02-26 02:58:00,41.4,31.0,30.03,WNW,292,0.0,0.0,67,0.00,,,0.00,Rainwise IP-100,2013-02-26 10:58:00,
2013-02-26 03:03:00,40.1,31.0,30.02,WNW,292,0.0,0.0,69,0.00,,,0.00,Rainwise IP-100,2013-02-26 11:03:00,
2013-02-26 03:08:00,39.0,31.0,30.01,WNW,292,0.0,1.4,71,0.00,,,0.00,Rainwise IP-100,2013-02-26 11:08:00,
2013-02-26 03:13:00,38.4,31.0,30.01,WNW,292,0.0,1.6,74,0.00,,,0.00,Rainwise IP-100,2013-02-26 11:13:00,
2013-02-26 03:18:00,38.4,31.0,30.01,WNW,292,0.0,0.0,76,0.00,,,0.00,Rainwise IP-100,2013-02-26 11:18:00,
2013-02-26 03:23:00,38.9,32.0,30.01,WNW,292,0.0,1.4,76,0.00,,,0.00,Rainwise IP-100,2013-02-26 11:23:00,
2013-02-26 03:28:00,39.9,33.0,30.01,WNW,292,0.0,1.6,74,0.00,,,0.00,Rainwise IP-100,2013-02-26 11:28:00,
2013-02-26 03:33:00,40.5,33.0,30.02,WNW,292,1.2,1.6,72,0.00,,,0.00,Rainwise IP-100,2013-02-26 11:33:00,
2013-02-26 03:38:00,40.5,33.0,30.01,WNW,292,0.0,1.6,72,0.00,,,0.00,Rainwise IP-100,2013-02-26 11:38:00,
2013-02-26 03:43:00,40.6,32.0,30.01,WNW,292,0.0,1.6,71,0.00,,,0.00,Rainwise IP-100,2013-02-26 11:43:00,
2013-02-26 03:48:00,40.6,32.0,30.01,WNW,292,0.0,0.0,70,0.00,,,0.00,Rainwise IP-100,2013-02-26 11:48:00,
2013-02-26 03:53:00,40.0,32.0,30.01,WNW,292,0.0,0.0,72,0.00,,,0.00,Rainwise IP-100,2013-02-26 11:53:00,
2013-02-26 03:58:00,39.1,32.0,30.00,WNW,292,0.0,0.0,75,0.00,,,0.00,Rainwise IP-100,2013-02-26 11:58:00,
2013-02-26 04:03:00,38.4,32.0,30.01,WNW,292,0.0,0.0,77,0.00,,,0.00,Rainwise IP-100,2013-02-26 12:03:00,
2013-02-26 04:08:00,37.8,32.0,30.01,WNW,292,0.0,0.0,79,0.00,,,0.00,Rainwise IP-100,2013-02-26 12:08:00,
2013-02-26 04:13:00,37.6,33.0,30.00,WNW,292,0.0,0.0,81,0.00,,,0.00,Rainwise IP-100,2013-02-26 12:13:00,
2013-02-26 04:18:00,37.9,33.0,30.00,WNW,292,0.0,1.6,82,0.00,,,0.00,Rainwise IP-100,2013-02-26 12:18:00,
2013-02-26 04:23:00,38.3,33.0,30.01,WNW,292,0.0,1.6,82,0.00,,,0.00,Rainwise IP-100,2013-02-26 12:23:00,
2013-02-26 04:28:00,38.4,33.0,30.01,WNW,292,0.0,0.0,82,0.00,,,0.00,Rainwise IP-100,2013-02-26 12:28:00,
2013-02-26 04:33:00,37.8,32.0,30.01,WNW,292,1.6,2.3,80,0.00,,,0.00,Rainwise IP-100,2013-02-26 12:33:00,
2013-02-26 04:38:00,37.1,32.0,30.01,WNW,292,0.0,2.3,80,0.00,,,0.00,Rainwise IP-100,2013-02-26 12:38:00,
2013-02-26 04:43:00,36.8,32.0,30.01,WNW,292,0.0,0.0,82,0.00,,,0.00,Rainwise IP-100,2013-02-26 12:43:00,
2013-02-26 04:48:00,37.3,32.0,30.01,WNW,292,1.4,1.9,84,0.00,,,0.00,Rainwise IP-100,2013-02-26 12:48:00,
2013-02-26 04:53:00,39.0,35.0,30.00,WNW,292,0.0,1.9,85,0.00,,,0.00,Rainwise IP-100,2013-02-26 12:53:00,
2013-02-26 04:58:00,39.1,35.0,30.01,WNW,292,0.0,0.0,83,0.00,,,0.00,Rainwise IP-100,2013-02-26 12:58:00,
2013-02-26 05:03:00,37.6,32.0,30.00,WNW,292,0.0,1.2,80,0.00,,,0.00,Rainwise IP-100,2013-02-26 13:03:00,
2013-02-26 05:08:00,37.0,32.0,30.01,WNW,292,0.0,1.4,82,0.00,,,0.00,Rainwise IP-100,2013-02-26 13:08:00,
2013-02-26 05:13:00,36.6,32.0,30.01,WNW,292,0.0,0.0,84,0.00,,,0.00,Rainwise IP-100,2013-02-26 13:13:00,
2013-02-26 05:18:00,36.6,33.0,30.00,WNW,292,1.2,1.4,85,0.00,,,0.00,Rainwise IP-100,2013-02-26 13:18:00,
2013-02-26 05:23:00,37.6,35.0,30.00,WNW,292,0.0,1.4,87,0.00,,,0.00,Rainwise IP-100,2013-02-26 13:23:00,
2013-02-26 05:28:00,38.6,36.0,30.01,WNW,292,0.0,0.0,87,0.00,,,0.00,Rainwise IP-100,2013-02-26 13:28:00,
2013-02-26 05:33:00,39.0,35.0,30.01,WNW,292,0.0,0.0,85,0.00,,,0.00,Rainwise IP-100,2013-02-26 13:33:00,
2013-02-26 05:38:00,39.2,35.0,30.01,WNW,292,0.0,0.0,84,0.00,,,0.00,Rainwise IP-100,2013-02-26 13:38:00,
2013-02-26 05:43:00,39.2,35.0,30.00,WNW,292,0.0,0.0,84,0.00,,,0.00,Rainwise IP-100,2013-02-26 13:43:00,
2013-02-26 05:48:00,39.4,35.0,30.01,WNW,292,0.0,1.6,84,0.00,,,0.00,Rainwise IP-100,2013-02-26 13:48:00,
2013-02-26 05:53:00,39.0,35.0,30.01,WNW,292,0.0,0.0,84,0.00,,,0.00,Rainwise IP-100,2013-02-26 13:53:00,
2013-02-26 05:58:00,37.8,33.0,30.01,WNW,292,1.6,2.1,84,0.00,,,0.00,Rainwise IP-100,2013-02-26 13:58:00,
2013-02-26 06:03:00,37.3,33.0,30.01,WNW,292,0.0,2.8,85,0.00,,,0.00,Rainwise IP-100,2013-02-26 14:03:00,
2013-02-26 06:08:00,36.9,33.0,30.01,WNW,292,0.0,0.0,86,0.00,,,0.00,Rainwise IP-100,2013-02-26 14:08:00,
2013-02-26 06:13:00,36.4,32.0,30.01,WNW,292,0.0,1.9,85,0.00,,,0.00,Rainwise IP-100,2013-02-26 14:13:00,
2013-02-26 06:18:00,36.1,32.0,30.00,WNW,292,1.2,1.9,86,0.00,,,0.00,Rainwise IP-100,2013-02-26 14:18:00,
2013-02-26 06:23:00,35.8,32.0,30.00,WNW,292,0.0,1.6,87,0.00,,,0.00,Rainwise IP-100,2013-02-26 14:23:00,
2013-02-26 06:28:00,35.7,32.0,30.01,WNW,292,0.0,1.2,88,0.00,,,0.00,Rainwise IP-100,2013-02-26 14:28:00,
2013-02-26 06:33:00,35.7,33.0,30.01,WNW,292,0.0,0.0,89,0.00,,,0.00,Rainwise IP-100,2013-02-26 14:33:00,
2013-02-26 06:38:00,35.6,33.0,30.01,WNW,292,0.0,0.0,89,0.00,,,0.00,Rainwise IP-100,2013-02-26 14:38:00,
2013-02-26 06:43:00,35.8,33.0,30.01,WNW,292,0.0,0.0,90,0.00,,,0.00,Rainwise IP-100,2013-02-26 14:43:00,
2013-02-26 06:48:00,36.2,33.0,30.01,WNW,292,0.0,1.2,92,0.00,,,0.00,Rainwise IP-100,2013-02-26 14:48:00,
2013-02-26 06:53:00,36.6,35.0,30.01,WNW,292,0.0,0.0,91,0.00,,,0.00,Rainwise IP-100,2013-02-26 14:53:00,
2013-02-26 06:58:00,36.5,35.0,30.01,WNW,292,0.0,0.0,89,0.00,,,0.00,Rainwise IP-100,2013-02-26 14:58:00,
2013-02-26 07:03:00,36.6,33.0,30.01,WNW,292,0.0,0.0,87,0.00,,,0.00,Rainwise IP-100,2013-02-26 15:03:00,
2013-02-26 07:08:00,36.9,33.0,30.01,WNW,292,0.0,0.0,86,0.00,,,0.00,Rainwise IP-100,2013-02-26 15:08:00,
2013-02-26 07:13:00,37.3,33.0,30.02,WNW,292,0.0,0.0,85,0.00,,,0.00,Rainwise IP-100,2013-02-26 15:13:00,
2013-02-26 07:18:00,37.8,33.0,30.02,WNW,292,0.0,0.0,84,0.00,,,0.00,Rainwise IP-100,2013-02-26 15:18:00,
2013-02-26 07:23:00,38.4,33.0,30.02,WNW,292,0.0,0.0,83,0.00,,,0.00,Rainwise IP-100,2013-02-26 15:23:00,
2013-02-26 07:28:00,39.3,33.0,30.03,WNW,292,0.0,0.0,81,0.00,,,0.00,Rainwise IP-100,2013-02-26 15:28:00,
2013-02-26 07:33:00,40.4,35.0,30.03,WNW,292,0.0,0.0,79,0.00,,,0.00,Rainwise IP-100,2013-02-26 15:33:00,
2013-02-26 07:38:00,41.5,36.0,30.03,WNW,292,0.0,1.2,76,0.00,,,0.00,Rainwise IP-100,2013-02-26 15:38:00,
2013-02-26 07:43:00,42.7,36.0,30.04,WNW,292,0.0,0.0,74,0.00,,,0.00,Rainwise IP-100,2013-02-26 15:43:00,
2013-02-26 07:48:00,43.8,36.0,30.03,WNW,292,0.0,0.0,72,0.00,,,0.00,Rainwise IP-100,2013-02-26 15:48:00,
2013-02-26 07:53:00,45.2,36.0,30.04,NNE,22,0.0,3.7,71,0.00,,,0.00,Rainwise IP-100,2013-02-26 15:53:00,
2013-02-26 07:58:00,46.7,37.0,30.04,NNE,22,0.0,0.0,69,0.00,,,0.00,Rainwise IP-100,2013-02-26 15:58:00,
2013-02-26 08:03:00,48.1,38.0,30.04,NNE,22,0.0,2.8,67,0.00,,,0.00,Rainwise IP-100,2013-02-26 16:03:00,
2013-02-26 08:08:00,49.6,38.0,30.05,North,360,1.2,2.1,65,0.00,,,0.00,Rainwise IP-100,2013-02-26 16:08:00,
2013-02-26 08:13:00,50.7,38.0,30.05,ESE,112,0.0,2.3,62,0.00,,,0.00,Rainwise IP-100,2013-02-26 16:13:00,
2013-02-26 08:18:00,51.5,38.0,30.05,ESE,112,1.6,2.3,60,0.00,,,0.00,Rainwise IP-100,2013-02-26 16:18:00,
2013-02-26 08:23:00,51.9,38.0,30.05,SE,135,1.4,2.6,58,0.00,,,0.00,Rainwise IP-100,2013-02-26 16:23:00,
2013-02-26 08:28:00,52.5,37.0,30.06,ESE,112,0.0,2.1,56,0.00,,,0.00,Rainwise IP-100,2013-02-26 16:28:00,
2013-02-26 08:33:00,53.1,37.0,30.06,North,360,2.3,2.3,55,0.00,,,0.00,Rainwise IP-100,2013-02-26 16:33:00,
2013-02-26 08:38:00,53.8,38.0,30.06,ESE,112,1.2,2.8,55,0.00,,,0.00,Rainwise IP-100,2013-02-26 16:38:00,
2013-02-26 08:43:00,54.5,38.0,30.06,ESE,112,2.8,2.8,54,0.00,,,0.00,Rainwise IP-100,2013-02-26 16:43:00,
2013-02-26 08:48:00,54.9,38.0,30.06,ESE,112,1.2,2.8,53,0.00,,,0.00,Rainwise IP-100,2013-02-26 16:48:00,
2013-02-26 08:53:00,55.5,39.0,30.06,ESE,112,0.0,2.6,53,0.00,,,0.00,Rainwise IP-100,2013-02-26 16:53:00,
2013-02-26 08:58:00,56.3,39.0,30.06,ESE,112,0.0,1.2,53,0.00,,,0.00,Rainwise IP-100,2013-02-26 16:58:00,
2013-02-26 09:03:00,57.0,40.0,30.06,ESE,112,1.2,3.3,53,0.00,,,0.00,Rainwise IP-100,2013-02-26 17:03:00,
2013-02-26 09:08:00,57.8,41.0,30.06,North,360,1.2,2.3,53,0.00,,,0.00,Rainwise IP-100,2013-02-26 17:08:00,
2013-02-26 09:13:00,58.4,41.0,30.06,WNW,292,5.4,6.5,53,0.00,,,0.00,Rainwise IP-100,2013-02-26 17:13:00,
2013-02-26 09:18:00,58.4,40.0,30.06,WNW,292,3.3,6.3,52,0.00,,,0.00,Rainwise IP-100,2013-02-26 17:18:00,
2013-02-26 09:23:00,58.6,41.0,30.06,NNE,22,0.0,4.9,52,0.00,,,0.00,Rainwise IP-100,2013-02-26 17:23:00,
2013-02-26 09:28:00,59.3,41.0,30.06,North,360,2.3,4.2,51,0.00,,,0.00,Rainwise IP-100,2013-02-26 17:28:00,
2013-02-26 09:34:00,59.7,40.0,30.06,NNE,22,0.0,4.0,49,0.00,,,0.00,Rainwise IP-100,2013-02-26 17:34:00,
2013-02-26 09:39:00,60.2,40.0,30.06,ESE,112,2.6,4.2,48,0.00,,,0.00,Rainwise IP-100,2013-02-26 17:39:00,
2013-02-26 09:44:00,60.7,39.0,30.05,NNE,22,2.1,3.7,46,0.00,,,0.00,Rainwise IP-100,2013-02-26 17:44:00,
2013-02-26 09:49:00,61.2,40.0,30.05,NNE,22,1.2,3.0,46,0.00,,,0.00,Rainwise IP-100,2013-02-26 17:49:00,
2013-02-26 09:54:00,61.5,40.0,30.05,NNE,22,0.0,5.8,45,0.00,,,0.00,Rainwise IP-100,2013-02-26 17:54:00,
2013-02-26 09:59:00,61.9,40.0,30.06,NNE,22,0.0,2.1,45,0.00,,,0.00,Rainwise IP-100,2013-02-26 17:59:00,
2013-02-26 10:04:00,62.3,41.0,30.05,North,360,2.1,4.0,46,0.00,,,0.00,Rainwise IP-100,2013-02-26 18:04:00,
2013-02-26 10:09:00,62.3,41.0,30.05,SSE,157,1.4,4.7,45,0.00,,,0.00,Rainwise IP-100,2013-02-26 18:09:00,
2013-02-26 10:14:00,62.6,40.0,30.05,SSE,157,0.0,3.5,44,0.00,,,0.00,Rainwise IP-100,2013-02-26 18:14:00,
2013-02-26 10:19:00,63.1,40.0,30.05,ESE,112,2.1,3.5,43,0.00,,,0.00,Rainwise IP-100,2013-02-26 18:19:00,
2013-02-26 10:24:00,63.6,39.0,30.04,ESE,112,0.0,3.3,41,0.00,,,0.00,Rainwise IP-100,2013-02-26 18:24:00,
2013-02-26 10:29:00,63.6,39.0,30.05,NNW,337,1.2,3.7,40,0.00,,,0.00,Rainwise IP-100,2013-02-26 18:29:00,
2013-02-26 10:34:00,63.3,40.0,30.05,SSW,202,4.4,4.9,42,0.00,,,0.00,Rainwise IP-100,2013-02-26 18:34:00,
2013-02-26 10:39:00,63.4,43.0,30.05,WSW,247,3.7,5.1,47,0.00,,,0.00,Rainwise IP-100,2013-02-26 18:39:00,
2013-02-26 10:44:00,63.1,43.0,30.05,South,180,4.4,5.6,49,0.00,,,0.00,Rainwise IP-100,2013-02-26 18:44:00,
2013-02-26 10:49:00,63.0,45.0,30.05,NNW,337,2.6,6.3,51,0.00,,,0.00,Rainwise IP-100,2013-02-26 18:49:00,
2013-02-26 10:54:00,63.3,45.0,30.04,SSW,202,5.4,7.2,51,0.00,,,0.00,Rainwise IP-100,2013-02-26 18:54:00,
2013-02-26 10:59:00,62.8,45.0,30.04,SSW,202,4.2,6.5,51,0.00,,,0.00,Rainwise IP-100,2013-02-26 18:59:00,
2013-02-26 11:04:00,62.1,44.0,30.04,South,180,1.6,9.6,52,0.00,,,0.00,Rainwise IP-100,2013-02-26 19:04:00,
2013-02-26 11:09:00,62.1,45.0,30.04,SSW,202,2.8,7.7,54,0.00,,,0.00,Rainwise IP-100,2013-02-26 19:09:00,
2013-02-26 11:14:00,61.8,45.0,30.04,SSW,202,4.4,9.6,53,0.00,,,0.00,Rainwise IP-100,2013-02-26 19:14:00,
2013-02-26 13:17:00,62.6,43.0,30.00,ESE,112,2.1,7.2,49,0.00,,,0.00,Rainwise IP-100,2013-02-26 21:17:00,
2013-02-26 13:22:00,62.8,42.0,30.00,SSW,202,2.3,6.1,47,0.00,,,0.00,Rainwise IP-100,2013-02-26 21:22:00,
2013-02-26 13:28:00,62.6,40.0,30.00,SSE,157,2.1,8.2,44,0.00,,,0.00,Rainwise IP-100,2013-02-26 21:28:00,
2013-02-26 13:33:00,62.4,40.0,30.00,WSW,247,6.1,7.2,43,0.00,,,0.00,Rainwise IP-100,2013-02-26 21:33:00,
2013-02-26 13:38:00,62.3,40.0,30.00,SSW,202,7.0,9.1,43,0.00,,,0.00,Rainwise IP-100,2013-02-26 21:38:00,
2013-02-26 13:43:00,62.0,40.0,30.00,SSW,202,3.0,8.9,44,0.00,,,0.00,Rainwise IP-100,2013-02-26 21:43:00,
2013-02-26 13:48:00,61.9,41.0,30.00,SSW,202,3.7,8.2,46,0.00,,,0.00,Rainwise IP-100,2013-02-26 21:48:00,
2013-02-26 13:53:00,61.9,42.0,30.00,SSW,202,3.0,9.3,48,0.00,,,0.00,Rainwise IP-100,2013-02-26 21:53:00,
2013-02-26 13:58:00,61.7,43.0,30.00,SSW,202,4.7,9.3,50,0.00,,,0.00,Rainwise IP-100,2013-02-26 21:58:00,
2013-02-26 14:03:00,61.0,41.0,30.00,SSW,202,7.5,9.3,49,0.00,,,0.00,Rainwise IP-100,2013-02-26 22:03:00,
2013-02-26 14:08:00,60.9,41.0,30.00,South,180,4.4,9.6,49,0.00,,,0.00,Rainwise IP-100,2013-02-26 22:08:00,
2013-02-26 14:13:00,61.4,41.0,30.00,WSW,247,5.4,8.2,48,0.00,,,0.00,Rainwise IP-100,2013-02-26 22:13:00,
2013-02-26 14:18:00,61.8,41.0,30.00,SSW,202,3.3,7.9,46,0.00,,,0.00,Rainwise IP-100,2013-02-26 22:18:00,
2013-02-26 14:23:00,62.0,41.0,30.00,SSW,202,4.0,7.0,46,0.00,,,0.00,Rainwise IP-100,2013-02-26 22:23:00,
2013-02-26 14:28:00,62.3,42.0,30.00,SSW,202,4.7,7.0,47,0.00,,,0.00,Rainwise IP-100,2013-02-26 22:28:00,
2013-02-26 14:33:00,62.6,42.0,30.00,SSW,202,3.0,6.3,47,0.00,,,0.00,Rainwise IP-100,2013-02-26 22:33:00,
2013-02-26 14:38:00,63.0,43.0,30.00,SSW,202,5.4,6.5,48,0.00,,,0.00,Rainwise IP-100,2013-02-26 22:38:00,
2013-02-26 14:43:00,63.4,44.0,30.00,SSW,202,2.3,6.1,49,0.00,,,0.00,Rainwise IP-100,2013-02-26 22:43:00,
2013-02-26 14:48:00,63.9,44.0,30.00,SSW,202,3.0,7.2,49,0.00,,,0.00,Rainwise IP-100,2013-02-26 22:48:00,
2013-02-26 14:53:00,64.5,45.0,30.00,South,180,2.1,5.4,49,0.00,,,0.00,Rainwise IP-100,2013-02-26 22:53:00,
2013-02-26 14:58:00,65.0,45.0,30.00,SW,225,3.3,4.4,49,0.00,,,0.00,Rainwise IP-100,2013-02-26 22:58:00,
2013-02-26 15:03:00,65.0,45.0,30.00,SSW,202,3.7,5.6,49,0.00,,,0.00,Rainwise IP-100,2013-02-26 23:03:00,
2013-02-26 15:08:00,64.4,46.0,30.00,SSW,202,4.2,7.9,50,0.00,,,0.00,Rainwise IP-100,2013-02-26 23:08:00,
2013-02-26 15:13:00,63.8,46.0,29.99,SSW,202,4.4,7.5,52,0.00,,,0.00,Rainwise IP-100,2013-02-26 23:13:00,
2013-02-26 15:18:00,63.0,46.0,30.00,SSW,202,2.3,10.7,54,0.00,,,0.00,Rainwise IP-100,2013-02-26 23:18:00,
2013-02-26 15:23:00,62.2,46.0,30.00,SSW,202,6.8,7.7,56,0.00,,,0.00,Rainwise IP-100,2013-02-26 23:23:00,
2013-02-26 15:28:00,61.9,47.0,30.00,WSW,247,2.3,8.4,57,0.00,,,0.00,Rainwise IP-100,2013-02-26 23:28:00,
2013-02-26 15:33:00,61.5,47.0,30.00,South,180,3.3,7.7,58,0.00,,,0.00,Rainwise IP-100,2013-02-26 23:33:00,
2013-02-26 15:38:00,61.3,47.0,30.00,SSW,202,4.0,7.7,58,0.00,,,0.00,Rainwise IP-100,2013-02-26 23:38:00,
2013-02-26 15:43:00,61.4,47.0,30.00,SSE,157,2.3,6.1,59,0.00,,,0.00,Rainwise IP-100,2013-02-26 23:43:00,
2013-02-26 15:48:00,61.4,47.0,30.01,SSW,202,4.7,5.6,58,0.00,,,0.00,Rainwise IP-100,2013-02-26 23:48:00,
2013-02-26 15:53:00,61.5,47.0,30.00,SSW,202,3.5,7.2,58,0.00,,,0.00,Rainwise IP-100,2013-02-26 23:53:00,
2013-02-26 15:58:00,61.1,47.0,30.00,SSW,202,1.9,6.8,59,0.00,,,0.00,Rainwise IP-100,2013-02-26 23:58:00,
2013-02-26 16:03:00,60.9,47.0,30.00,WNW,292,2.1,5.8,60,0.00,,,0.00,Rainwise IP-100,2013-02-27 00:03:00,
2013-02-26 16:08:00,60.6,47.0,30.00,South,180,2.6,4.0,61,0.00,,,0.00,Rainwise IP-100,2013-02-27 00:08:00,
2013-02-26 16:13:00,60.2,47.0,30.00,SSW,202,1.4,4.9,62,0.00,,,0.00,Rainwise IP-100,2013-02-27 00:13:00,
2013-02-26 16:18:00,59.9,47.5,30.00,West,270,2.6,5.4,63,0.00,,,0.00,Rainwise IP-100,2013-02-27 00:18:00,
2013-02-26 16:23:00,59.6,47.0,30.00,South,180,0.0,4.4,63,0.00,,,0.00,Rainwise IP-100,2013-02-27 00:23:00,
2013-02-26 16:28:00,59.4,47.5,30.00,WSW,247,0.0,4.7,64,0.00,,,0.00,Rainwise IP-100,2013-02-27 00:28:00,
2013-02-26 16:33:00,59.1,47.0,30.00,South,180,3.3,4.4,64,0.00,,,0.00,Rainwise IP-100,2013-02-27 00:33:00,
2013-02-26 16:38:00,59.1,47.0,30.00,SW,225,4.7,4.7,64,0.00,,,0.00,Rainwise IP-100,2013-02-27 00:38:00,
2013-02-26 16:43:00,59.0,47.0,30.00,WSW,247,0.0,4.7,64,0.00,,,0.00,Rainwise IP-100,2013-02-27 00:43:00,
2013-02-26 16:48:00,59.0,47.0,30.00,South,180,1.9,2.3,64,0.00,,,0.00,Rainwise IP-100,2013-02-27 00:48:00,
2013-02-26 16:53:00,58.9,47.5,30.00,South,180,0.0,2.8,65,0.00,,,0.00,Rainwise IP-100,2013-02-27 00:53:00,
2013-02-26 16:58:00,58.8,47.5,30.00,South,180,0.0,1.6,65,0.00,,,0.00,Rainwise IP-100,2013-02-27 00:58:00,
2013-02-26 17:03:00,58.7,47.5,30.00,South,180,0.0,1.9,65,0.00,,,0.00,Rainwise IP-100,2013-02-27 01:03:00,
2013-02-26 17:08:00,58.5,47.5,30.00,SSW,202,0.0,1.4,66,0.00,,,0.00,Rainwise IP-100,2013-02-27 01:08:00,
2013-02-26 17:13:00,58.1,47.0,30.00,SSW,202,0.0,0.0,66,0.00,,,0.00,Rainwise IP-100,2013-02-27 01:13:00,
2013-02-26 17:18:00,57.7,47.0,30.00,SSW,202,0.0,0.0,67,0.00,,,0.00,Rainwise IP-100,2013-02-27 01:18:00,
2013-02-26 17:23:00,57.5,47.5,30.00,SSW,202,0.0,0.0,68,0.00,,,0.00,Rainwise IP-100,2013-02-27 01:23:00,
2013-02-26 17:28:00,57.4,47.5,30.00,SSW,202,0.0,0.0,69,0.00,,,0.00,Rainwise IP-100,2013-02-27 01:28:00,
2013-02-26 17:33:00,57.1,47.0,30.00,SSW,202,0.0,0.0,69,0.00,,,0.00,Rainwise IP-100,2013-02-27 01:33:00,
2013-02-26 17:38:00,56.9,47.0,30.01,SSW,202,0.0,0.0,69,0.00,,,0.00,Rainwise IP-100,2013-02-27 01:38:00,
2013-02-26 17:43:00,56.8,47.5,30.01,WSW,247,1.9,0.0,70,0.00,,,0.00,Rainwise IP-100,2013-02-27 01:43:00,
2013-02-26 17:48:00,56.7,47.0,30.01,West,270,0.0,2.8,69,0.00,,,0.00,Rainwise IP-100,2013-02-27 01:48:00,
2013-02-26 17:53:00,56.5,47.0,30.01,West,270,1.4,2.1,69,0.00,,,0.00,Rainwise IP-100,2013-02-27 01:53:00,
2013-02-26 17:58:00,56.4,47.0,30.00,West,270,0.0,1.9,69,0.00,,,0.00,Rainwise IP-100,2013-02-27 01:58:00,
2013-02-26 18:03:00,56.5,47.0,30.01,West,270,0.0,2.8,69,0.00,,,0.00,Rainwise IP-100,2013-02-27 02:03:00,
2013-02-26 18:08:00,56.2,46.0,30.01,West,270,0.0,1.4,69,0.00,,,0.00,Rainwise IP-100,2013-02-27 02:08:00,
2013-02-26 18:13:00,56.0,46.0,30.01,West,270,2.1,2.1,69,0.00,,,0.00,Rainwise IP-100,2013-02-27 02:13:00,
2013-02-26 18:18:00,56.1,46.0,30.01,West,270,1.6,2.1,68,0.00,,,0.00,Rainwise IP-100,2013-02-27 02:18:00,
2013-02-26 18:23:00,56.3,46.0,30.01,West,270,2.1,2.8,67,0.00,,,0.00,Rainwise IP-100,2013-02-27 02:23:00,
2013-02-26 18:28:00,56.4,45.0,30.01,West,270,0.0,2.3,66,0.00,,,0.00,Rainwise IP-100,2013-02-27 02:28:00,
2013-02-26 18:33:00,56.3,45.0,30.02,West,270,0.0,2.1,65,0.00,,,0.00,Rainwise IP-100,2013-02-27 02:33:00,
2013-02-26 18:38:00,55.9,44.0,30.02,West,270,0.0,2.1,65,0.00,,,0.00,Rainwise IP-100,2013-02-27 02:38:00,
2013-02-26 18:43:00,55.3,44.0,30.03,West,270,1.2,1.4,67,0.00,,,0.00,Rainwise IP-100,2013-02-27 02:43:00,
2013-02-26 18:48:00,55.0,45.0,30.03,West,270,2.3,2.3,68,0.00,,,0.00,Rainwise IP-100,2013-02-27 02:48:00,
2013-02-26 18:53:00,55.0,45.0,30.03,WNW,292,2.8,3.3,69,0.00,,,0.00,Rainwise IP-100,2013-02-27 02:53:00,
2013-02-26 18:58:00,55.6,45.0,30.03,WNW,292,2.3,3.5,67,0.00,,,0.00,Rainwise IP-100,2013-02-27 02:58:00,
2013-02-26 19:03:00,56.4,44.0,30.03,NNW,337,1.2,3.3,64,0.00,,,0.00,Rainwise IP-100,2013-02-27 03:03:00,
2013-02-26 19:08:00,56.4,44.0,30.03,NNW,337,3.3,5.6,63,0.00,,,0.00,Rainwise IP-100,2013-02-27 03:08:00,
2013-02-26 19:13:00,56.4,44.0,30.03,North,360,5.8,7.0,63,0.00,,,0.00,Rainwise IP-100,2013-02-27 03:13:00,
2013-02-26 19:18:00,57.0,44.0,30.04,NNW,337,3.7,7.0,61,0.00,,,0.00,Rainwise IP-100,2013-02-27 03:18:00,
2013-02-26 19:23:00,57.3,44.0,30.04,North,360,0.0,5.8,60,0.00,,,0.00,Rainwise IP-100,2013-02-27 03:23:00,
2013-02-26 19:28:00,57.0,44.0,30.04,North,360,0.0,1.9,61,0.00,,,0.00,Rainwise IP-100,2013-02-27 03:28:00,
2013-02-26 19:33:00,56.3,44.0,30.05,North,360,0.0,0.0,62,0.00,,,0.00,Rainwise IP-100,2013-02-27 03:33:00,
2013-02-26 19:38:00,55.5,43.0,30.05,North,360,0.0,2.1,62,0.00,,,0.00,Rainwise IP-100,2013-02-27 03:38:00,
2013-02-26 19:43:00,55.0,42.0,30.06,WNW,292,3.0,3.3,62,0.00,,,0.00,Rainwise IP-100,2013-02-27 03:43:00,
2013-02-26 19:48:00,54.9,42.0,30.06,WNW,292,1.6,3.3,62,0.00,,,0.00,Rainwise IP-100,2013-02-27 03:48:00,
2013-02-26 19:53:00,54.8,42.0,30.06,WNW,292,1.9,3.3,62,0.00,,,0.00,Rainwise IP-100,2013-02-27 03:53:00,
2013-02-26 19:58:00,54.6,42.0,30.06,WNW,292,1.2,2.6,62,0.00,,,0.00,Rainwise IP-100,2013-02-27 03:58:00,
2013-02-26 20:03:00,54.6,42.0,30.06,WNW,292,1.2,1.4,62,0.00,,,0.00,Rainwise IP-100,2013-02-27 04:03:00,
2013-02-26 20:08:00,54.4,42.0,30.06,WNW,292,0.0,1.2,62,0.00,,,0.00,Rainwise IP-100,2013-02-27 04:08:00,
2013-02-26 20:13:00,54.0,41.0,30.06,WNW,292,0.0,0.0,62,0.00,,,0.00,Rainwise IP-100,2013-02-27 04:13:00,
2013-02-26 20:18:00,53.5,41.0,30.06,WNW,292,1.4,2.1,63,0.00,,,0.00,Rainwise IP-100,2013-02-27 04:18:00,
2013-02-26 20:23:00,53.2,40.0,30.07,WNW,292,0.0,2.1,63,0.00,,,0.00,Rainwise IP-100,2013-02-27 04:23:00,
2013-02-26 20:28:00,52.9,41.0,30.07,WNW,292,1.4,1.9,64,0.00,,,0.00,Rainwise IP-100,2013-02-27 04:28:00,
2013-02-26 20:33:00,52.8,41.0,30.07,NNE,22,0.0,2.1,64,0.00,,,0.00,Rainwise IP-100,2013-02-27 04:33:00,
2013-02-26 20:38:00,52.6,41.0,30.07,NNE,22,0.0,1.2,65,0.00,,,0.00,Rainwise IP-100,2013-02-27 04:38:00,
2013-02-26 20:43:00,52.4,41.0,30.07,NNE,22,0.0,0.0,66,0.00,,,0.00,Rainwise IP-100,2013-02-27 04:43:00,
2013-02-26 20:48:00,52.3,41.0,30.07,NNE,22,0.0,0.0,67,0.00,,,0.00,Rainwise IP-100,2013-02-27 04:48:00,
2013-02-26 20:53:00,52.6,42.0,30.08,NNE,22,0.0,0.0,68,0.00,,,0.00,Rainwise IP-100,2013-02-27 04:53:00,
2013-02-26 20:58:00,53.1,42.0,30.08,NNE,22,0.0,1.2,67,0.00,,,0.00,Rainwise IP-100,2013-02-27 04:58:00,
2013-02-26 21:00:00,53.3,42.0,30.08,NNE,22,0.0,1.2,66,0.00,,,0.00,Rainwise IP-100,2013-02-27 05:00:00,
2013-02-26 21:05:00,53.5,42.0,30.08,NNE,22,0.0,1.4,65,0.00,,,0.00,Rainwise IP-100,2013-02-27 05:05:00,
2013-02-26 21:10:00,53.5,41.0,30.08,NNE,22,0.0,1.2,64,0.00,,,0.00,Rainwise IP-100,2013-02-27 05:10:00,
2013-02-26 21:15:00,53.4,41.0,30.08,NNE,22,0.0,0.0,63,0.00,,,0.00,Rainwise IP-100,2013-02-27 05:15:00,
2013-02-26 21:20:00,52.6,41.0,30.08,NNE,22,0.0,0.0,64,0.00,,,0.00,Rainwise IP-100,2013-02-27 05:20:00,
2013-02-26 21:25:00,51.7,41.0,30.09,NNE,22,0.0,0.0,66,0.00,,,0.00,Rainwise IP-100,2013-02-27 05:25:00,
2013-02-26 21:30:00,51.1,41.0,30.08,NNE,22,0.0,0.0,68,0.00,,,0.00,Rainwise IP-100,2013-02-27 05:30:00,
2013-02-26 21:35:00,50.8,41.0,30.09,NNE,22,0.0,0.0,69,0.00,,,0.00,Rainwise IP-100,2013-02-27 05:35:00,
2013-02-26 21:40:00,50.6,41.0,30.09,NNE,22,0.0,0.0,69,0.00,,,0.00,Rainwise IP-100,2013-02-27 05:40:00,
2013-02-26 21:45:00,50.7,41.0,30.08,NW,315,0.0,4.0,70,0.00,,,0.00,Rainwise IP-100,2013-02-27 05:45:00,
2013-02-26 21:50:00,50.9,42.0,30.08,NW,315,0.0,1.2,70,0.00,,,0.00,Rainwise IP-100,2013-02-27 05:50:00,
2013-02-26 21:55:00,50.8,41.0,30.09,NW,315,1.4,2.1,69,0.00,,,0.00,Rainwise IP-100,2013-02-27 05:55:00,
2013-02-26 22:00:00,50.5,41.0,30.09,NW,315,0.0,1.9,69,0.00,,,0.00,Rainwise IP-100,2013-02-27 06:00:00,
2013-02-26 22:05:00,50.5,41.0,30.09,WNW,292,3.0,3.0,70,0.00,,,0.00,Rainwise IP-100,2013-02-27 06:05:00,
2013-02-26 22:10:00,50.8,42.0,30.09,WNW,292,0.0,3.5,70,0.00,,,0.00,Rainwise IP-100,2013-02-27 06:10:00,
2013-02-26 22:15:00,50.9,42.0,30.09,WNW,292,0.0,0.0,70,0.00,,,0.00,Rainwise IP-100,2013-02-27 06:15:00,
2013-02-26 22:20:00,50.0,40.0,30.09,WNW,292,0.0,1.4,70,0.00,,,0.00,Rainwise IP-100,2013-02-27 06:20:00,
2013-02-26 22:25:00,49.0,40.0,30.09,WNW,292,0.0,1.2,71,0.00,,,0.00,Rainwise IP-100,2013-02-27 06:25:00,
2013-02-26 22:30:00,48.2,40.0,30.09,WNW,292,1.2,1.6,74,0.00,,,0.00,Rainwise IP-100,2013-02-27 06:30:00,
2013-02-26 22:35:00,47.6,40.0,30.09,WNW,292,1.4,2.1,76,0.00,,,0.00,Rainwise IP-100,2013-02-27 06:35:00,
2013-02-26 22:40:00,48.0,41.0,30.09,WNW,292,0.0,2.6,76,0.00,,,0.00,Rainwise IP-100,2013-02-27 06:40:00,
2013-02-26 22:45:00,48.7,41.0,30.10,WNW,292,0.0,0.0,75,0.00,,,0.00,Rainwise IP-100,2013-02-27 06:45:00,
2013-02-26 22:50:00,48.6,41.0,30.10,WNW,292,0.0,1.2,75,0.00,,,0.00,Rainwise IP-100,2013-02-27 06:50:00,
2013-02-26 22:55:00,48.3,41.0,30.10,WNW,292,0.0,1.4,75,0.00,,,0.00,Rainwise IP-100,2013-02-27 06:55:00,
2013-02-26 23:00:00,48.0,41.0,30.10,WNW,292,0.0,0.0,76,0.00,,,0.00,Rainwise IP-100,2013-02-27 07:00:00,
2013-02-26 23:05:00,47.4,40.0,30.10,WNW,292,0.0,1.2,77,0.00,,,0.00,Rainwise IP-100,2013-02-27 07:05:00,
2013-02-26 23:10:00,47.0,40.0,30.10,WNW,292,0.0,1.4,78,0.00,,,0.00,Rainwise IP-100,2013-02-27 07:10:00,
2013-02-26 23:15:00,46.7,40.0,30.10,WNW,292,0.0,0.0,79,0.00,,,0.00,Rainwise IP-100,2013-02-27 07:15:00,
2013-02-26 23:20:00,46.2,40.0,30.11,WNW,292,1.2,3.7,80,0.00,,,0.00,Rainwise IP-100,2013-02-27 07:20:00,
2013-02-26 23:25:00,46.6,40.0,30.10,West,270,1.6,3.7,77,0.00,,,0.00,Rainwise IP-100,2013-02-27 07:25:00,
2013-02-26 23:30:00,48.5,39.0,30.11,West,270,0.0,2.1,68,0.00,,,0.00,Rainwise IP-100,2013-02-27 07:30:00,
2013-02-26 23:35:00,49.3,37.0,30.11,West,270,0.0,1.2,64,0.00,,,0.00,Rainwise IP-100,2013-02-27 07:35:00,
2013-02-26 23:40:00,48.6,38.0,30.11,West,270,0.0,0.0,65,0.00,,,0.00,Rainwise IP-100,2013-02-27 07:40:00,
2013-02-26 23:45:00,47.7,38.0,30.11,West,270,0.0,2.6,69,0.00,,,0.00,Rainwise IP-100,2013-02-27 07:45:00,
2013-02-26 23:50:00,46.7,39.0,30.11,West,270,1.2,1.9,74,0.00,,,0.00,Rainwise IP-100,2013-02-27 07:50:00,
2013-02-26 23:55:00,46.1,38.0,30.11,West,270,0.0,2.3,75,0.00,,,0.00,Rainwise IP-100,2013-02-27 07:55:00,